Dewpoint
59 59 59 59 59 59 59 59 59 59 59 59 58 58 58 58 59 59 59 59 59 59 59 59 59 59 60 60 60 60 60 56 54 49 52 47 55 68 75 74 72 75 77 60 56 58 59 55 53 51 48 47 50 49 47 51 54 56 55 49 50 52 52 54 55 58 60 60 64 63 64 62 62 66 68 69 68 67 66 67 68 69 67 69 69 69 68 63
60 60 60 60 59 60 60 60 59 59 59 58 58 58 58 58 59 59 59 59 59 59 59 59 59 59 60 60 60 61 59 56 50 44 40 68 72 72 74 75 75 77 76 56 55 59 51 47 41 38 42 43 46 44 44 43 49 54 58 48 50 53 54 55 57 58 61 62 64 65 65 62 63 65 66 64 65 65 64 65 67 66 68 69 69 68 67 65
60 60 60 60 60 60 60 60 59 59 59 58 58 58 58 58 58 59 59 59 59 59 59 59 59 59 60 60 60 61 58 53 52 48 42 74 74 74 74 75 75 77 61 52 57 53 46 43 38 35 35 39 42 38 42 44 54 42 52 50 48 56 52 53 56 58 63 63 63 63 62 63 65 64 67 64 63 64 63 63 65 66 66 67 66 66 66 66
60 60 60 60 60 60 60 59 59 59 58 59 58 58 58 58 58 58 59 59 59 59 59 59 59 60 60 60 61 60 56 54 47 37 44 73 71 74 73 72 75 73 61 54 58 56 45 40 38 35 34 35 37 38 36 42 45 44 46 46 47 50 52 52 54 57 59 59 61 61 62 63 65 65 66 64 62 63 65 66 65 65 65 66 66 66 66 65
60 60 60 60 60 60 59 60 59 59 59 59 58 58 58 58 58 58 58 58 58 59 59 59 59 60 60 60 61 58 54 32 35 41 54 71 76 72 74 72 74 60 58 57 57 56 46 38 36 35 35 34 34 35 33 41 45 43 44 45 47 49 51 52 54 58 58 61 61 63 62 61 64 63 64 64 62 61 65 66 67 66 67 66 65 64 66 66
60 60 60 60 60 60 59 59 59 59 59 59 58 58 58 58 58 58 58 58 58 58 59 59 59 60 60 61 59 54 47 28 31 44 70 74 73 75 76 74 77 67 56 53 51 48 40 36 34 31 33 32 29 31 29 35 50 49 44 46 48 49 50 52 53 55 61 61 62 64 62 60 62 63 63 62 63 63 65 65 66 65 66 67 66 65 66 66
60 60 60 60 60 59 59 59 59 59 59 59 59 58 58 58 58 58 58 58 58 59 59 59 60 60 60 61 57 52 42 32 26 55 72 73 75 76 75 76 76 66 56 50 46 42 36 34 31 30 33 32 28 31 31 34 38 42 42 45 46 46 47 51 54 63 60 62 62 60 61 61 63 62 64 60 59 62 63 63 60 63 65 66 65 65 66 67
60 59 59 59 59 59 59 59 59 59 59 59 59 58 58 58 58 58 58 58 58 59 59 60 60 60 60 55 45 48 47 27 42 50 71 74 71 72 73 58 53 50 47 48 47 41 36 33 28 31 31 31 31 32 31 38 38 41 44 46 46 48 50 51 55 59 58 57 62 62 60 62 63 63 64 61 60 60 61 59 60 62 64 64 64 65 66 67
59 59 59 59 59 59 59 59 59 59 59 59 58 58 58 57 57 58 58 58 58 59 60 60 60 60 60 57 43 36 26 40 51 52 65 55 49 51 52 46 47 43 42 45 46 39 35 32 29 30 29 29 31 32 31 38 41 42 42 43 44 45 49 53 54 55 54 55 58 59 60 61 61 64 61 61 60 60 60 60 60 61 62 62 64 66 67 67
59 59 59 59 59 59 59 59 59 59 59 58 58 58 57 58 58 58 58 58 58 59 60 60 60 60 57 52 44 35 32 35 55 56 49 44 40 44 47 41 41 40 40 43 40 36 35 32 30 30 29 29 31 32 29 37 41 41 41 42 44 45 48 52 51 52 52 57 61 60 59 61 59 60 55 59 60 62 59 60 60 59 60 61 63 65 67 67
59 60 59 59 59 59 59 59 59 58 58 58 58 57 57 58 58 58 58 59 59 59 60 60 60 59 51 46 41 33 30 33 34 40 51 43 38 37 39 38 40 36 39 40 36 35 34 32 31 30 30 27 30 30 31 36 40 37 41 43 44 46 46 49 49 51 56 56 62 63 57 57 55 55 54 57 59 59 57 59 60 60 60 60 61 64 67 67
60 60 59 59 59 59 58 59 58 58 58 58 58 57 58 58 58 58 59 59 59 59 60 60 60 57 52 47 38 29 24 23 27 42 44 44 39 39 36 37 42 38 38 35 34 33 33 32 31 29 27 29 27 32 31 36 36 43 44 49 44 45 45 49 49 55 57 56 60 62 58 55 54 54 53 55 59 57 54 56 57 59 60 59 61 64 66 66
60 59 59 59 59 59 58 58 58 58 58 58 58 58 58 58 58 59 60 60 60 60 60 60 59 55 52 37 26 26 25 21 29 36 40 43 40 42 41 39 43 40 35 33 32 30 30 30 31 29 28 27 28 29 30 32 39 42 44 47 46 45 45 48 51 54 55 57 59 60 49 51 57 56 53 54 56 57 53 55 55 57 58 59 61 63 65 66
60 59 59 58 59 59 58 58 58 58 58 57 57 58 58 58 59 60 60 60 60 60 60 59 57 53 51 40 35 26 25 20 28 31 35 37 40 40 41 42 42 39 34 32 30 31 32 31 29 28 28 27 26 30 31 30 35 39 41 39 42 42 41 43 47 51 53 57 61 56 52 47 59 54 52 54 54 54 55 54 55 58 58 60 61 63 64 66
60 59 58 58 59 59 58 58 58 58 57 57 57 57 57 58 59 60 59 59 59 60 59 60 56 55 47 34 24 29 70 18 27 25 34 34 29 32 38 37 32 29 29 28 30 31 30 29 29 27 26 27 27 28 29 33 38 40 38 37 38 34 40 44 46 51 49 52 57 54 52 53 49 50 50 52 52 56 57 57 55 56 57 60 61 62 62 65
59 59 58 58 58 59 58 58 57 57 57 57 56 57 57 58 60 59 60 60 62 60 58 55 49 49 40 33 30 55 20 7 8 21 32 32 26 25 23 25 26 27 27 28 28 28 29 30 29 29 27 28 28 28 30 29 34 34 31 40 24 26 38 41 47 48 47 47 53 53 48 55 49 52 51 60 56 54 55 59 58 56 57 61 60 62 62 65
59 58 58 58 58 58 58 57 57 57 57 56 56 56 56 58 61 62 60 61 59 58 56 57 50 45 29 27 29 31 28 16 11 23 31 27 28 28 28 29 29 29 29 28 27 27 28 28 29 29 28 27 27 28 29 28 30 29 30 27 23 32 31 40 43 44 43 45 49 51 47 45 46 48 50 53 56 55 57 62 62 62 62 61 62 60 61 64
59 58 58 58 58 58 58 57 57 57 57 56 56 57 55 59 60 62 60 58 54 52 51 52 51 43 34 30 24 19 23 15 22 26 31 27 27 29 33 31 29 28 28 27 26 26 28 27 28 28 28 28 28 28 28 29 26 25 20 21 24 34 35 38 39 41 43 46 47 51 50 47 48 49 49 49 50 57 53 58 66 60 64 64 63 67 64 64
59 58 58 57 58 58 58 58 57 57 57 56 57 58 61 61 55 54 51 50 50 48 45 40 40 29 17 22 23 20 16 24 25 29 30 28 26 29 30 31 27 26 25 25 26 28 30 28 28 28 26 27 28 33 28 27 23 21 19 18 17 28 31 32 38 42 44 59 48 46 49 46 48 49 51 49 51 54 56 58 63 64 64 66 63 68 67 68
59 58 58 57 57 58 58 57 57 56 56 55 49 51 54 55 52 49 50 50 45 39 36 37 32 25 20 17 17 24 30 29 25 29 29 27 26 24 25 27 29 28 25 24 27 27 28 27 27 26 26 28 29 30 27 26 21 20 19 17 25 26 35 37 41 42 44 50 47 49 48 47 48 52 52 50 50 50 54 59 60 64 64 64 66 67 65 67
58 58 57 57 57 57 57 56 56 56 55 53 49 45 41 32 31 33 34 36 44 42 35 33 34 25 20 23 25 26 22 23 22 24 25 28 24 22 20 26 27 25 26 26 26 28 26 26 26 26 27 27 29 31 27 24 22 19 17 15 20 20 39 39 39 43 43 45 46 49 47 48 51 50 53 52 52 50 51 59 61 62 62 67 64 65 67 69
58 57 57 57 57 57 57 56 55 55 55 54 49 45 41 33 32 33 34 29 29 33 34 30 32 29 25 28 29 28 27 21 13 19 21 27 21 19 20 23 23 22 24 26 27 26 25 24 25 26 32 33 29 28 27 23 21 20 17 14 13 16 22 30 36 42 41 38 50 45 40 46 51 52 53 50 49 51 53 58 60 63 63 66 65 65 65 67
58 57 57 57 57 56 56 56 54 54 53 51 48 43 37 36 33 35 33 31 28 30 30 28 25 26 27 27 28 28 22 21 13 16 21 25 21 17 18 19 20 20 21 24 24 25 24 23 24 26 27 27 28 26 23 22 20 17 16 12 17 16 25 27 32 36 32 32 36 42 41 46 50 51 51 49 50 55 57 59 63 63 64 63 64 66 67 65
58 57 57 57 57 56 55 54 54 53 51 45 37 35 33 33 33 33 32 30 28 30 26 26 24 23 20 21 23 22 17 18 18 15 24 22 19 15 15 18 18 19 20 23 23 24 24 24 24 24 26 27 26 26 24 21 19 20 18 16 18 19 24 21 27 32 27 30 35 36 43 44 47 47 46 53 53 54 58 59 61 63 64 63 65 66 67 67
57 57 57 57 56 56 54 53 50 45 46 43 39 33 32 37 38 36 31 31 28 25 28 24 22 20 18 22 23 19 15 14 17 19 26 22 17 16 15 17 18 17 18 21 22 22 23 25 26 26 27 26 26 25 22 19 18 18 16 15 15 16 23 27 26 26 28 30 30 30 33 36 41 39 42 47 51 55 57 59 59 62 64 65 64 64 66 68
57 57 57 57 55 55 53 54 44 39 35 34 34 34 32 34 41 35 34 31 27 23 24 20 20 17 21 21 22 17 15 11 16 20 27 24 23 17 14 13 16 16 17 19 20 21 20 24 24 25 27 26 25 24 24 19 17 17 16 17 14 15 19 23 26 26 28 28 31 27 32 35 38 39 41 46 47 52 56 57 56 63 66 64 64 64 63 64
57 57 57 57 55 54 50 41 49 44 39 34 36 35 31 34 49 38 34 28 24 24 20 20 12 20 23 23 19 16 11 9 13 16 26 25 17 18 13 7 10 13 15 17 19 17 20 22 24 25 26 25 25 23 22 18 16 14 16 16 15 17 21 24 22 19 22 26 27 27 31 33 38 40 40 42 44 55 56 57 56 59 57 61 64 63 66 64
56 56 56 56 55 54 53 52 49 40 35 35 34 32 34 40 43 37 35 29 21 23 20 20 16 21 18 21 19 15 21 14 15 23 25 20 18 15 14 10 5 7 11 12 13 17 18 21 24 24 25 24 23 23 23 21 17 16 16 16 16 16 18 19 18 19 20 18 32 22 29 36 38 39 39 44 41 47 53 54 54 57 55 56 62 59 64 65
56 55 55 55 53 53 54 52 48 41 34 33 32 33 33 45 38 35 33 27 22 21 23 18 25 21 23 19 17 17 20 16 14 24 24 21 17 16 11 13 14 9 8 13 14 14 19 23 24 25 24 23 24 24 19 18 18 15 16 16 16 15 16 16 15 16 19 23 25 27 31 32 32 35 39 39 44 43 49 51 52 52 55 56 59 62 64 64
55 55 54 54 53 54 53 52 49 44 41 36 36 37 35 35 34 29 26 25 21 17 19 20 19 18 23 17 15 17 21 15 19 22 20 17 15 18 17 17 12 14 10 11 14 16 17 27 30 23 24 24 25 23 21 19 18 18 16 14 14 14 15 14 19 20 18 29 26 25 35 25 31 35 33 37 37 41 45 49 51 53 54 55 57 62 63 64
54 54 54 53 53 50 50 44 44 44 43 43 36 36 35 36 31 30 28 20 22 16 19 18 14 17 20 17 13 17 20 19 20 18 16 16 13 14 17 17 18 15 14 8 7 12 17 21 22 23 26 25 25 23 18 19 18 18 15 15 16 19 15 20 16 20 16 22 20 27 29 31 32 33 34 37 37 41 44 46 49 48 51 56 59 58 60 66
54 53 53 54 54 53 48 42 40 41 43 38 36 34 35 33 33 28 20 23 19 15 16 12 13 13 19 18 16 18 19 20 20 18 15 14 13 9 13 15 15 18 13 9 4 11 14 15 18 20 30 25 24 22 19 16 18 16 16 17 13 20 20 17 19 15 17 28 22 25 26 31 33 34 37 39 37 38 44 43 45 47 51 58 58 57 57 56
53 53 53 53 53 52 50 49 47 47 44 40 36 33 33 32 30 28 24 19 17 17 12 12 13 13 16 15 16 13 17 17 20 20 19 14 10 9 9 11 13 14 11 9 7 6 11 16 17 18 20 27 25 18 17 13 14 14 14 14 16 17 19 18 19 18 13 15 21 21 25 30 32 35 39 40 42 42 44 47 47 49 50 52 54 56 56 60
52 52 54 54 52 52 50 51 48 45 42 43 41 36 34 31 29 33 19 16 14 13 13 14 14 14 15 12 14 10 13 16 18 17 17 14 8 10 6 7 10 11 12 10 4 8 11 13 14 16 16 22 24 21 18 17 14 8 9 9 16 19 11 16 17 17 14 27 18 23 23 30 32 35 38 41 43 45 44 43 46 50 52 52 52 54 54 56
52 53 55 56 55 51 50 49 48 44 42 39 35 34 33 32 30 24 15 16 14 14 11 15 13 14 14 12 13 12 12 11 16 15 13 12 9 11 8 4 8 11 8 5 -0 4 8 9 12 14 17 22 22 22 22 19 15 11 12 12 14 16 16 12 14 12 10 12 25 26 30 34 35 40 40 41 40 41 45 48 50 46 46 48 50 52 52 55
53 53 51 49 50 51 50 48 47 44 41 37 34 34 32 30 25 23 23 16 7 10 12 13 12 13 13 12 15 15 14 11 13 13 12 11 12 9 9 5 5 11 8 2 1 -1 4 5 6 13 17 19 19 21 21 20 16 10 10 11 11 11 10 14 14 8 9 9 19 27 32 37 39 37 37 42 40 41 44 46 48 48 55 56 56 56 53 53
54 54 49 48 46 45 50 49 45 45 41 35 33 32 31 30 22 23 31 23 19 11 9 10 13 12 13 10 15 16 13 12 11 11 13 12 11 10 8 8 6 9 10 6 10 2 2 1 5 14 14 16 18 19 19 18 16 13 7 10 11 9 9 12 11 19 11 8 18 26 26 39 36 34 38 37 39 41 46 46 45 51 54 56 61 63 62 55
55 52 53 51 46 47 49 49 47 45 40 36 32 41 32 28 23 23 23 22 16 17 10 9 11 9 12 10 14 15 13 7 11 10 11 11 10 13 10 9 6 6 8 11 11 10 2 0 2 13 15 15 15 16 17 19 16 13 12 12 9 10 14 11 8 13 14 13 19 20 19 22 28 31 35 35 37 40 42 46 45 47 53 56 57 61 62 60
55 53 51 49 46 47 47 50 46 43 39 34 31 33 31 29 22 21 22 22 22 19 14 11 10 9 9 9 11 13 10 4 10 9 10 10 7 12 11 13 8 8 7 9 9 11 8 6 8 12 14 14 14 15 15 13 15 15 15 11 9 7 11 14 12 17 21 14 12 24 25 29 31 32 33 36 37 40 44 44 45 50 51 54 57 57 61 60
53 46 43 44 44 45 51 47 42 41 36 33 32 29 27 24 23 26 24 22 22 20 15 12 10 9 10 10 7 10 8 4 9 7 6 8 6 11 9 13 10 11 9 8 8 8 11 21 11 12 15 13 14 14 13 15 12 11 9 5 7 7 4 5 7 10 11 17 20 28 28 32 34 31 32 36 38 41 44 47 48 48 49 51 56 57 57 57
49 45 42 46 45 47 48 43 39 35 34 33 31 28 24 25 25 23 23 23 22 22 20 19 17 11 8 9 5 8 6 4 8 5 6 5 9 12 12 11 13 11 8 6 7 8 15 15 16 14 12 12 12 14 12 14 14 10 7 6 3 4 4 8 12 6 7 10 26 17 23 37 27 29 32 35 39 41 45 46 46 47 51 53 55 57 58 55
51 45 41 44 44 46 45 38 39 36 31 30 29 29 26 44 24 19 23 20 19 21 21 20 19 14 8 9 9 9 6 4 8 8 6 6 9 11 12 13 14 12 7 9 7 10 19 13 13 14 12 11 10 12 13 13 14 12 9 6 1 -1 4 7 13 14 8 8 9 18 28 36 38 36 37 36 37 40 41 45 46 49 52 53 54 56 58 59
45 44 46 43 44 43 40 36 39 37 32 29 28 25 25 23 18 23 20 15 16 20 19 17 15 15 10 12 13 8 8 7 10 10 5 6 7 7 11 13 13 9 5 3 6 14 39 18 13 10 12 9 9 9 10 11 10 8 8 7 2 2 -1 1 8 13 13 13 11 14 23 36 37 40 37 36 39 36 40 44 49 50 49 51 54 56 56 58
45 43 41 41 42 42 37 33 31 29 29 28 26 25 26 25 25 23 26 13 12 14 13 14 13 15 15 11 12 12 11 14 8 10 5 10 5 7 10 9 8 4 2 5 14 14 16 28 20 15 16 14 7 11 4 9 9 10 7 4 4 3 5 4 10 16 13 12 11 13 27 33 36 38 38 38 36 36 37 44 48 50 53 51 53 56 59 60
50 47 44 40 42 39 35 33 34 34 35 35 26 25 24 24 23 27 29 28 23 25 23 32 37 12 14 13 12 11 11 11 14 10 10 7 5 9 8 6 5 3 1 12 53 10 11 14 23 19 16 14 10 13 14 14 9 8 7 4 6 -3 8 10 10 17 16 29 16 25 32 34 36 40 36 36 38 42 43 45 46 51 51 51 53 56 60 60
46 43 40 41 38 37 36 35 34 33 33 35 33 28 28 27 24 27 30 32 31 33 36 40 40 33 21 21 18 15 11 11 12 12 10 8 10 9 8 7 8 6 40 55 42 19 9 12 19 26 26 13 22 21 12 15 6 1 0 3 3 9 9 13 13 14 15 24 24 31 33 32 33 36 36 35 38 42 44 43 45 48 50 51 56 58 59 61
49 43 42 41 39 35 32 32 31 31 32 34 36 37 28 28 30 26 29 30 30 28 38 37 41 36 27 28 19 15 7 10 15 16 12 10 14 11 9 7 8 31 60 36 39 17 24 15 18 19 20 18 9 12 8 9 3 4 4 1 4 8 11 12 9 13 33 19 21 34 41 29 29 28 32 37 36 40 41 44 47 49 52 56 57 60 60 61
48 46 41 41 40 39 32 31 31 29 30 32 36 35 34 31 29 29 27 28 37 40 37 33 35 28 26 23 23 18 17 17 20 17 11 10 15 11 9 6 5 46 39 16 17 18 13 14 17 15 16 18 17 12 12 10 10 13 8 5 6 8 9 11 10 13 15 17 22 31 35 30 27 28 31 37 39 39 41 44 49 51 52 56 58 59 63 64
48 46 42 42 38 37 37 38 39 37 35 35 36 34 33 31 30 29 32 44 40 41 47 46 40 40 38 26 25 22 21 18 17 18 15 15 13 13 9 8 7 16 16 17 17 35 31 19 18 18 19 18 16 14 15 11 8 13 12 10 7 6 7 7 6 12 13 21 21 22 27 32 27 32 35 41 45 40 44 48 51 51 53 57 58 61 63 65
49 46 44 44 43 40 38 37 37 37 36 39 35 35 33 32 32 34 32 36 50 48 44 43 35 34 41 29 33 29 21 25 22 17 11 19 15 14 9 9 10 15 16 15 16 25 24 23 29 16 21 19 17 15 11 13 13 16 12 13 10 8 5 8 14 18 19 15 14 17 30 35 40 41 45 49 50 49 50 49 53 56 57 58 59 62 63 63
51 49 48 43 40 39 41 40 36 36 34 33 32 31 32 31 32 35 35 42 46 54 46 44 35 35 36 33 43 35 20 22 24 22 18 20 18 11 10 10 9 14 14 16 16 20 24 23 20 19 20 21 19 17 14 15 16 18 19 17 33 33 31 25 32 29 23 32 39 50 50 52 54 48 48 51 51 53 52 52 53 55 56 62 62 60 63 64
55 46 49 45 42 46 39 39 37 34 32 32 31 33 35 34 33 33 34 32 33 34 38 37 36 33 34 33 33 34 30 30 32 32 18 16 10 7 8 8 9 16 16 17 21 17 27 25 22 18 17 20 20 18 17 15 20 24 27 28 33 34 35 32 34 38 42 47 47 48 51 55 57 57 50 47 50 54 53 53 57 59 63 63 63 61 61 60